Temp
7 7 6 6 6 5 5 5 5 4 4 4 4 3 4 4 4 5 5 5 5 6 6 6 6 6 6 6 6 7 7 7 7 7 7 8 8 8 8 8 8 8 9 9 9 9 9 9 9 10 10 10 10 10 11 11 12 12 13 13 13 14 14 14 14 14 14 14 14
7 7 6 6 6 6 6 5 5 4 4 4 4 3 3 4 4 4 5 5 5 5 5 6 6 6 6 6 6 6 7 7 7 7 7 8 8 8 8 8 8 8 9 9 9 9 9 9 9 9 9 10 10 10 10 11 11 12 12 12 13 13 13 14 14 14 13 13 13
7 7 7 6 6 6 6 6 5 5 4 4 4 3 3 3 3 4 4 5 5 5 5 5 5 6 6 6 6 6 6 6 7 7 7 7 8 8 8 8 8 8 8 9 9 9 9 9 9 9 9 9 9 9 10 10 11 11 12 12 12 12 13 13 13 13 13 13 13
7 7 7 6 6 6 6 6 5 5 4 4 4 4 3 3 3 3 4 4 4 4 5 5 5 5 6 6 6 6 6 6 6 7 7 7 7 7 7 8 8 8 8 8 8 9 9 9 9 9 9 9 9 9 9 10 10 11 11 11 11 11 11 12 13 13 13 13 13
7 7 7 7 6 6 6 6 5 5 5 4 4 4 3 3 3 3 3 3 4 4 4 4 4 5 5 6 6 6 6 6 6 6 7 7 7 7 7 7 8 8 8 8 8 8 8 9 9 9 9 8 8 9 9 9 10 10 11 11 11 11 11 11 12 13 13 13 13
7 7 7 7 6 6 5 5 5 5 4 4 4 4 3 3 3 3 3 3 3 3 3 4 4 4 5 5 6 6 6 6 6 6 6 7 7 7 7 7 7 7 8 8 8 8 8 8 9 9 9 8 8 8 9 9 10 10 10 11 11 11 11 11 11 12 12 13 13
7 7 7 6 6 6 5 5 5 5 5 5 5 4 3 3 3 3 3 3 3 3 3 3 3 4 4 5 5 6 6 6 6 6 6 6 6 7 7 6 6 7 7 8 8 8 8 8 8 8 8 8 8 8 8 9 9 10 10 10 10 10 11 11 11 11 11 12 13
6 6 6 6 6 6 5 5 4 5 5 5 5 5 4 3 3 3 3 3 3 3 3 3 3 3 4 4 5 5 6 6 6 6 6 6 6 6 6 6 6 6 6 7 8 8 8 8 8 8 8 8 8 8 8 8 9 9 9 9 9 10 10 11 11 11 11 11 12
6 6 6 6 6 6 5 5 4 4 5 5 5 5 4 3 3 3 3 3 3 3 3 3 3 3 3 4 4 5 5 6 6 6 6 6 6 6 6 6 6 5 6 6 7 7 8 8 8 8 8 8 8 8 8 8 8 9 9 9 9 9 10 10 10 10 11 10 11
7 7 7 7 6 6 6 5 4 4 4 5 5 5 4 4 4 3 3 3 3 3 3 3 3 2 3 3 4 4 5 5 6 6 6 6 6 6 5 5 5 5 5 5 6 6 7 7 7 7 7 7 7 7 7 8 8 8 8 8 9 9 9 9 10 10 10 10 10
7 7 7 7 6 6 6 5 5 4 4 4 5 5 4 4 4 4 3 3 3 3 3 3 2 2 2 2 3 3 4 5 5 6 6 6 6 5 5 4 4 4 4 5 5 5 6 6 6 6 6 6 7 7 7 7 8 8 8 8 8 9 9 9 9 9 10 10 10
7 7 7 6 6 6 6 5 5 5 4 4 4 4 4 4 4 4 3 3 3 3 3 3 2 2 2 2 2 3 4 4 5 5 6 6 6 6 5 4 4 4 4 4 4 4 5 5 5 6 6 6 6 6 6 7 7 8 8 8 8 8 8 8 8 9 9 9 10
8 7 7 6 6 6 6 6 5 5 5 4 4 4 4 4 4 4 3 3 3 3 3 3 2 2 2 2 2 2 3 4 4 5 5 6 6 6 5 4 3 3 4 4 4 4 4 5 5 5 5 5 6 6 6 6 7 7 7 8 8 8 8 8 8 8 8 9 9
7 7 7 7 6 6 6 6 5 5 5 5 4 4 4 4 4 4 4 3 3 3 3 2 2 2 2 2 2 2 3 3 4 4 5 5 6 6 5 4 3 3 3 3 3 3 4 4 4 5 5 5 5 5 5 6 6 6 7 7 7 7 7 7 8 8 8 8 9
7 7 7 7 6 6 6 6 6 6 5 5 5 4 4 4 4 4 4 3 3 3 3 2 2 2 2 2 2 2 2 3 3 4 4 5 5 5 5 4 3 3 2 3 3 3 3 3 4 4 4 4 5 5 5 5 6 6 6 6 6 7 7 7 7 8 8 8 8
8 7 7 7 6 6 6 6 6 6 6 6 5 5 4 4 4 4 3 3 3 3 2 2 2 2 2 1 1 1 2 2 3 3 3 4 4 5 5 4 3 2 2 2 3 3 3 3 3 3 4 4 4 4 4 5 5 5 5 6 6 6 6 7 7 7 7 8 8
8 8 7 7 6 6 6 6 6 6 6 6 6 5 5 4 4 4 3 3 3 3 2 2 2 2 1 1 1 1 1 2 2 2 3 3 4 4 4 4 3 2 1 2 2 3 3 3 3 3 3 3 4 4 4 4 4 5 5 5 5 6 6 6 7 7 7 7 7
7 7 7 7 7 7 6 6 6 6 6 6 6 6 5 5 4 4 3 3 3 3 2 2 2 2 1 1 1 1 1 1 2 2 2 3 3 4 4 4 3 2 1 1 1 2 2 2 2 3 3 3 3 3 4 4 4 4 4 5 5 5 5 6 6 6 7 7 7
7 7 7 7 7 7 7 6 6 6 6 6 6 6 5 5 5 4 4 3 3 3 2 2 2 2 1 1 1 1 1 1 1 1 2 2 3 4 4 3 2 1 1 1 1 1 2 2 2 2 2 3 3 3 3 3 4 4 4 4 4 5 5 5 5 6 6 6 7
7 7 7 7 7 7 7 7 6 6 6 5 5 5 5 5 5 4 4 4 3 3 2 2 2 2 2 2 1 1 1 1 1 1 1 2 2 3 4 3 2 2 1 1 1 1 1 1 2 2 2 2 3 3 3 3 3 3 3 4 4 4 4 4 5 5 5 6 6
7 7 7 7 7 7 7 6 6 6 5 5 5 5 5 5 5 5 4 4 4 3 3 2 2 2 2 2 2 2 2 1 1 1 1 1 2 3 3 3 3 2 1 1 1 1 1 1 1 1 2 2 3 3 3 3 3 3 3 3 3 3 4 4 4 5 5 5 6
7 7 6 6 6 6 6 6 5 5 5 5 5 5 5 5 5 5 5 4 4 3 3 2 2 2 2 3 3 3 2 1 1 1 1 1 2 2 3 3 3 2 1 1 1 1 1 1 1 1 1 2 2 2 3 3 3 3 3 3 3 3 3 3 4 4 4 5 5
7 6 6 6 6 6 6 5 5 5 5 5 5 5 5 5 5 4 4 4 4 4 3 3 2 2 2 2 2 2 2 2 1 1 1 1 2 2 3 3 3 3 2 1 0 0 0 0 1 1 1 1 2 2 2 2 2 3 3 3 3 3 3 3 3 4 4 4 5
6 6 6 5 5 5 5 5 5 5 5 5 5 5 4 4 4 4 4 4 4 4 4 3 3 2 2 2 2 2 2 2 2 2 1 1 1 2 2 3 3 3 3 2 1 1 0 0 0 1 1 1 1 1 2 2 2 2 2 2 2 3 3 3 3 3 3 4 4
6 6 6 5 5 5 5 5 5 5 5 5 5 4 4 4 4 4 4 4 4 4 4 3 3 3 2 2 2 2 2 2 2 2 1 1 1 1 2 2 3 3 3 2 2 1 1 1 1 1 1 1 1 1 1 1 1 2 2 2 2 2 3 3 3 3 3 3 4
7 6 6 5 5 5 5 5 5 5 5 5 4 4 4 4 4 4 4 4 4 4 4 4 3 3 3 2 2 2 2 2 2 2 1 1 1 1 2 2 2 2 3 3 2 1 1 1 1 1 1 1 1 1 1 1 1 1 1 1 2 2 2 3 3 3 3 3 3
7 6 6 6 5 5 5 5 5 5 5 4 4 4 4 4 4 3 3 3 4 4 4 4 3 3 3 2 2 2 2 3 3 2 2 1 1 1 2 2 2 2 2 2 2 1 1 1 1 1 1 1 1 1 1 1 1 1 1 1 1 2 2 2 3 3 3 3 3
7 6 6 6 5 5 5 5 4 4 4 4 4 4 4 3 3 3 3 3 3 3 3 3 3 3 3 3 2 2 2 3 3 3 2 2 1 1 2 2 2 2 2 2 2 1 1 1 2 2 2 1 1 1 1 1 1 1 1 1 1 1 2 2 2 2 3 3 3
7 6 6 5 5 5 5 5 4 4 4 4 4 4 3 3 3 3 3 3 3 3 3 3 3 3 3 3 3 3 3 3 3 3 2 2 2 1 2 2 2 2 2 2 2 1 1 1 2 2 2 2 1 1 1 1 1 1 1 1 1 1 1 1 2 2 2 3 3
7 6 6 5 5 5 5 5 5 5 4 4 4 3 3 3 2 2 2 2 2 2 3 3 3 3 3 3 3 3 3 3 3 3 3 2 2 2 2 2 2 2 2 1 1 1 1 1 2 2 2 2 2 1 1 1 1 1 1 1 1 1 1 1 1 2 2 2 2
7 6 6 5 5 5 5 5 5 4 4 4 3 3 3 3 3 3 2 2 2 2 2 2 2 2 3 3 3 3 3 3 3 3 3 3 2 2 2 2 2 2 1 1 1 1 1 1 2 2 2 2 2 1 1 1 1 1 1 1 1 1 1 1 1 1 2 2 2
7 6 6 5 5 5 5 5 5 4 4 3 3 3 3 3 3 3 3 2 2 2 2 1 2 2 2 3 3 3 3 3 3 3 3 3 3 3 2 2 2 2 2 1 1 1 1 1 1 2 2 2 2 1 1 1 1 1 1 1 1 1 1 1 1 1 1 2 2
7 6 6 5 5 5 5 5 4 4 4 3 3 3 3 3 3 3 2 2 2 1 1 1 1 2 2 2 3 3 4 4 4 4 4 3 3 3 3 2 2 2 2 1 1 1 1 1 1 2 2 2 2 1 1 0 0 1 1 1 0 0 0 1 1 1 1 1 2
6 6 6 5 5 5 5 4 4 4 3 3 3 3 3 3 3 3 2 2 2 1 1 1 1 2 2 2 3 3 4 4 4 4 4 4 3 3 3 3 2 2 2 1 1 1 1 1 1 2 2 2 1 1 1 0 0 0 1 1 1 0 0 0 0 1 1 1 1
6 6 5 5 5 5 5 4 4 3 3 3 3 3 3 3 3 3 3 2 2 1 1 1 1 2 2 2 2 2 3 4 4 4 4 4 4 3 3 3 3 2 2 2 1 1 1 1 1 2 2 2 1 1 1 0 0 0 0 1 0 0 0 0 0 1 1 1 1
6 5 5 5 5 5 5 4 4 3 3 3 3 3 3 3 3 3 3 2 2 1 1 1 1 1 1 1 2 2 2 3 4 4 4 4 4 4 3 3 3 3 2 2 1 1 1 1 1 2 2 2 2 1 1 0 0 0 0 0 0 0 0 0 0 0 1 1 1
5 5 5 5 5 5 4 4 4 3 3 3 3 3 3 3 3 3 2 2 1 1 1 1 1 1 1 1 2 2 2 3 3 3 4 4 4 4 4 4 3 3 2 2 2 1 1 1 1 2 2 2 2 1 1 0 0 0 0 0 0 0 0 0 0 0 0 0 0
5 5 5 5 5 5 4 4 3 3 3 3 3 3 3 3 3 2 2 2 1 1 1 1 1 1 1 2 2 2 2 2 2 3 3 4 4 4 4 4 4 3 3 2 2 1 1 1 1 1 2 2 2 2 1 0 0 0 0 0 0 0 0 0 0 0 0 0 0
5 5 5 5 5 5 4 4 4 3 3 3 3 3 3 3 3 2 2 2 2 2 2 2 1 1 1 1 1 1 2 2 2 3 3 4 4 4 4 4 4 3 3 2 2 1 1 1 1 1 2 2 2 2 1 0 -0 -0 0 0 0 0 0 1 1 1 0 0 0
4 4 5 5 5 5 4 4 4 4 4 3 3 3 3 3 3 3 2 2 2 2 2 2 2 2 2 1 1 1 1 2 2 2 3 3 4 4 4 4 4 4 3 3 2 2 1 1 1 1 2 2 2 2 1 1 0 -0 -0 0 0 0 0 0 1 1 1 1 0
4 4 4 5 5 5 4 4 4 4 4 3 3 3 3 3 3 2 2 2 2 2 2 2 2 2 1 1 1 1 1 1 2 2 3 3 3 4 4 4 4 4 3 3 2 2 2 1 1 1 2 2 2 2 2 1 1 -0 -0 -0 0 0 0 0 0 1 1 1 1
Height
750 749 749 749 749 748 748 748 748 747 747 747 746 746 746 746 746 746 746 746 745 745 745 744 743 743 742 742 741 740 739 739 738 738 737 737 736 736 736 735 734 733 733 732 732 732 732 732 731 731 730 729 729 729 728 727 727 727 727 727 727 728 729 729 729 729 730 730 731
749 749 749 749 748 748 748 748 747 747 747 747 746 746 746 746 746 746 746 746 746 745 745 744 744 743 743 742 742 741 740 739 739 738 737 737 736 736 736 735 734 733 733 732 732 732 732 732 732 732 731 731 730 730 729 728 727 727 727 727 727 727 727 728 728 728 728 729 730
749 749 748 748 748 748 747 747 747 747 747 747 747 746 746 746 746 746 746 746 746 746 745 745 744 744 743 742 742 741 741 740 739 738 737 737 736 736 735 735 734 734 733 733 732 733 733 733 733 732 732 732 731 731 730 728 728 727 727 726 726 726 726 726 727 728 728 728 729
749 749 748 748 748 747 747 747 747 747 747 747 747 746 746 746 745 745 746 746 746 746 746 745 745 744 743 743 742 742 741 740 740 739 738 737 737 736 735 735 735 734 734 733 733 733 733 733 733 733 732 732 732 731 730 729 728 727 726 726 726 726 726 725 725 726 727 727 728
748 748 748 748 747 747 747 747 747 747 747 747 746 746 746 746 745 745 745 746 746 746 746 745 745 744 744 743 742 742 742 741 740 739 738 737 737 736 736 735 735 735 734 734 734 734 734 733 733 733 733 732 732 731 731 730 729 727 726 726 727 727 726 725 724 725 726 727 727
748 748 748 747 747 747 747 747 747 747 746 746 746 746 745 745 745 745 745 745 746 746 746 746 745 745 744 743 743 742 742 741 740 739 739 738 737 737 736 736 735 735 735 734 734 734 733 733 733 733 733 733 732 732 732 731 730 728 727 727 727 727 726 726 725 724 724 726 726
747 747 747 747 747 747 747 746 746 746 746 746 745 745 745 745 745 745 745 745 746 746 746 746 745 745 744 743 743 742 742 741 741 740 739 738 738 737 737 736 736 735 735 734 734 733 733 733 733 733 733 733 733 733 732 732 731 730 729 728 728 727 727 727 726 725 725 725 726
747 747 747 747 747 746 746 746 746 746 745 745 745 745 745 745 745 745 745 745 745 746 746 746 745 745 744 743 743 742 742 742 741 740 740 739 738 738 737 737 736 736 735 734 734 733 733 733 733 733 734 734 734 734 734 733 732 731 730 730 728 727 727 727 727 726 726 726 726
746 746 746 746 746 746 746 746 745 745 745 745 745 745 745 745 745 745 745 745 745 746 746 746 746 745 744 744 743 743 742 742 742 741 740 740 739 738 738 737 737 736 735 735 734 734 734 734 734 734 734 735 735 735 735 735 733 732 731 730 729 729 728 728 727 727 727 727 727
744 745 745 745 745 745 745 745 745 745 745 744 744 744 744 744 744 744 745 745 745 745 746 746 745 745 745 744 744 743 743 742 742 741 741 740 739 739 738 738 737 737 736 736 735 735 735 735 734 735 735 736 736 736 736 735 734 733 732 731 731 730 729 728 727 727 728 728 728
743 744 744 744 745 745 745 745 744 744 744 744 744 744 744 744 744 744 744 745 745 745 745 745 745 745 745 744 744 744 743 743 742 742 741 741 740 740 739 739 739 738 738 737 737 736 736 735 735 736 736 736 737 737 737 736 735 734 732 732 732 731 729 729 728 728 728 728 728
742 742 743 743 744 744 744 744 744 744 744 743 743 743 743 743 743 744 744 744 744 745 745 745 745 745 745 745 744 744 744 743 743 742 742 741 741 740 740 740 739 739 739 738 738 737 737 736 736 736 737 737 737 737 737 736 735 734 733 733 732 731 731 730 730 730 729 729 729
741 741 742 742 742 743 743 743 743 743 743 743 743 743 743 743 743 743 743 743 744 744 745 745 745 745 745 745 744 744 744 744 743 743 742 742 741 741 740 740 740 740 740 739 739 738 737 737 737 737 737 737 737 737 737 737 736 735 734 734 733 732 732 732 732 731 731 730 730
739 740 740 741 741 742 742 742 742 742 742 742 742 742 742 743 743 743 743 743 743 744 744 745 745 745 745 745 744 744 744 744 743 743 742 742 742 741 741 740 740 740 740 740 740 739 738 738 737 737 737 737 737 737 737 737 737 736 735 735 734 734 734 733 733 733 732 732 731
738 738 739 740 740 740 740 741 741 741 741 741 741 742 742 742 742 742 742 742 742 743 743 744 744 745 745 744 744 744 744 744 744 743 743 742 742 742 741 741 740 740 740 740 740 740 739 739 738 738 738 738 737 737 737 737 737 737 736 736 736 735 735 735 735 734 734 733 733
737 737 737 738 738 739 739 739 739 740 740 740 740 741 741 741 742 742 742 742 742 742 743 743 743 744 744 744 744 744 744 744 744 743 743 743 742 742 741 741 741 741 740 740 740 740 740 740 739 739 739 738 738 738 738 738 737 737 737 737 736 736 736 736 736 735 735 734 734
735 736 736 737 737 737 737 738 738 738 739 739 739 740 740 740 740 741 741 741 742 742 742 742 742 743 743 743 743 744 744 744 744 743 743 743 742 742 742 741 741 741 741 741 741 741 741 740 740 740 739 739 739 739 738 738 738 737 737 737 737 736 736 736 736 736 735 735 734
734 734 735 735 735 736 736 737 737 737 737 738 738 738 739 739 739 740 740 741 741 741 741 741 742 742 742 742 743 743 743 743 743 743 743 743 742 742 742 742 741 741 741 741 741 741 741 741 741 740 740 740 739 739 739 739 738 738 737 737 737 736 736 735 736 736 736 735 735
733 733 733 734 734 734 735 735 736 736 737 737 737 737 738 738 738 739 739 740 740 741 741 741 741 741 742 742 742 742 743 743 743 743 743 743 742 742 742 742 742 741 741 741 741 741 741 741 741 741 740 740 740 739 739 739 739 739 738 737 737 736 736 736 735 735 735 735 735
732 732 732 732 733 733 733 734 734 735 735 736 736 736 737 737 737 737 738 738 739 740 740 740 740 740 741 741 741 742 742 742 742 742 743 743 742 742 742 742 742 742 741 741 741 741 741 741 741 741 741 740 740 740 740 740 739 739 738 737 737 737 737 736 736 736 735 736 736
731 732 732 732 732 732 732 733 733 734 734 734 735 735 735 736 736 736 737 737 738 739 739 739 739 740 740 740 740 741 741 742 742 742 742 742 742 742 742 742 742 742 742 741 741 741 741 741 741 741 741 741 740 740 740 740 740 739 739 738 738 738 737 737 737 736 736 736 736
731 731 731 731 731 731 732 732 732 732 732 733 733 733 734 734 735 735 736 736 737 737 738 738 739 739 739 739 740 740 740 741 741 741 742 742 742 742 742 742 742 742 742 742 741 741 741 741 741 741 741 741 741 741 741 740 740 740 740 739 739 739 739 738 738 737 737 737 737
731 731 731 731 731 731 731 731 731 731 731 731 732 732 732 733 733 734 734 735 735 736 736 737 738 738 738 739 739 739 740 740 740 741 741 741 742 742 742 742 741 742 742 742 742 742 741 742 742 742 742 742 742 742 742 741 741 741 741 741 740 740 740 740 740 739 738 738 738
730 730 730 730 730 730 730 730 730 730 730 730 730 731 731 731 732 732 733 733 734 734 735 736 737 737 738 738 738 738 739 739 740 740 740 741 741 741 741 741 741 741 741 741 742 742 742 742 742 742 742 742 742 742 742 742 742 742 742 741 741 741 741 741 741 740 739 739 739
729 729 729 729 729 729 729 729 728 728 728 728 729 729 729 730 730 731 731 732 732 733 733 734 735 736 737 737 737 737 738 738 739 739 739 740 740 741 741 741 741 741 741 741 741 742 742 742 742 742 742 743 743 743 743 743 742 742 742 742 742 742 741 741 741 741 740 740 740
728 728 728 728 728 728 728 727 727 727 727 727 727 728 728 728 729 729 730 730 731 731 732 732 733 734 735 736 736 736 737 737 738 738 739 739 740 740 740 740 740 740 740 741 741 741 742 742 742 742 742 742 743 743 743 743 743 743 743 742 742 742 742 742 741 741 741 741 741
727 727 727 727 727 727 727 727 727 726 726 726 726 726 726 727 727 727 728 728 729 730 730 731 732 732 733 734 735 735 735 736 737 737 738 738 739 739 740 740 740 740 740 740 740 741 741 742 742 742 742 742 742 742 743 743 743 743 743 743 742 742 742 742 742 742 742 742 742
726 726 726 726 726 726 726 726 726 725 725 725 725 725 725 726 726 726 726 727 727 728 729 729 730 731 732 732 732 733 734 735 736 736 737 737 738 738 739 739 740 740 740 740 740 740 741 741 742 742 741 741 742 742 742 742 743 743 743 743 742 742 742 742 742 742 742 742 742
725 725 725 725 724 724 724 724 724 724 724 724 724 724 724 724 724 724 725 725 726 726 727 727 728 729 730 730 731 732 732 733 734 735 736 736 737 737 738 739 739 739 739 739 739 740 740 741 741 742 742 741 741 742 742 742 742 742 742 743 743 742 742 742 742 742 742 743 743
724 723 723 723 723 723 723 723 723 723 723 723 723 723 723 723 723 723 723 724 724 725 725 726 727 727 727 728 729 730 731 732 733 734 734 735 736 736 737 738 738 739 739 739 739 739 740 740 741 742 742 741 741 741 741 742 742 742 742 742 742 742 742 742 742 742 743 743 743
723 722 722 722 722 722 722 722 722 722 722 722 722 722 722 722 722 722 722 722 723 723 724 725 725 725 725 726 727 728 729 730 731 732 733 733 734 735 736 737 737 738 738 739 739 739 740 740 740 741 741 741 741 741 741 741 742 742 742 742 742 742 742 742 742 742 743 743 743
722 721 721 721 720 720 720 721 721 721 721 721 721 720 720 720 720 720 721 721 722 722 723 723 723 723 724 724 725 726 727 728 729 730 731 732 733 734 735 736 737 737 738 738 738 739 739 739 740 740 741 741 741 741 741 741 741 742 742 742 742 742 742 743 743 743 743 743 743
720 720 720 719 719 719 719 719 720 720 720 720 719 719 718 718 719 719 720 720 721 721 722 722 722 722 722 723 723 724 725 726 727 728 729 731 732 732 733 734 735 736 737 737 738 738 739 739 739 740 740 740 740 740 741 741 741 742 742 742 742 742 742 742 743 743 743 743 743
719 719 718 718 717 717 717 718 718 719 719 718 718 717 717 717 717 718 718 719 719 720 720 720 721 721 721 722 722 723 723 724 725 727 728 729 730 731 732 733 734 735 736 737 737 737 738 738 739 739 739 739 739 740 740 741 741 741 742 742 742 742 742 742 743 743 743 743 743
718 717 717 717 716 716 716 717 717 717 717 717 717 716 716 716 716 716 717 717 718 718 718 719 719 720 720 721 721 722 722 723 724 725 726 727 729 729 730 731 732 734 735 736 736 737 737 737 738 738 739 739 739 739 739 740 740 741 741 742 742 742 742 743 743 743 743 743 743
717 716 716 715 715 715 715 715 716 716 716 716 715 715 714 714 714 714 715 716 717 717 717 717 718 718 719 719 720 720 721 721 722 723 725 726 727 728 728 730 731 732 733 734 735 736 736 737 737 738 738 738 738 738 739 739 740 740 741 741 742 742 742 743 743 743 743 743 743
715 715 715 714 714 714 714 714 714 714 714 714 714 713 713 713 713 713 714 715 715 715 715 716 716 717 717 717 718 718 719 720 721 722 723 724 725 726 727 728 729 731 732 733 734 734 735 736 737 737 737 737 737 737 738 738 739 739 740 740 741 742 742 743 743 743 744 744 744
714 714 713 713 713 712 712 713 713 712 712 712 712 712 712 712 712 712 713 713 713 714 714 714 715 715 715 716 717 717 718 719 720 721 722 722 723 725 726 727 728 729 731 732 732 733 734 735 736 736 736 736 736 736 737 737 738 738 739 740 740 741 742 742 743 743 743 744 744
712 712 712 712 712 711 711 711 711 711 711 711 711 711 711 711 711 711 712 712 712 712 712 712 713 713 714 715 716 716 717 717 718 719 720 721 722 723 724 725 727 728 729 730 731 732 733 734 734 735 736 735 735 736 736 737 737 738 738 739 739 740 741 741 742 742 743 743 744
710 710 710 710 710 710 710 710 709 709 709 709 710 710 710 710 710 710 711 711 711 711 711 711 711 712 713 714 714 715 715 716 717 717 718 719 721 722 723 724 725 726 728 729 730 731 732 732 733 734 735 734 734 735 735 736 736 737 737 738 739 739 740 740 741 742 742 742 743
708 708 708 708 708 709 709 708 708 708 708 708 708 708 708 709 709 709 709 709 709 709 709 710 710 711 712 712 713 713 714 714 715 716 717 718 719 721 722 722 723 725 726 727 728 729 730 731 732 733 733 733 733 734 734 735 735 736 736 737 737 738 739 739 740 741 741 742 742
Wind_Speed
10 10 10 11 11 10 8 6 6 7 7 8 8 7 7 6 8 9 10 11 12 12 13 13 13 13 13 13 14 14 15 15 15 15 15 15 15 14 13 12 12 11 12 13 14 15 16 17 17 16 16 15 13 11 8 4 2 6 11 15 16 18 23 30 33 34 35 35 37
11 10 11 11 11 11 9 7 7 7 7 8 8 8 7 6 6 7 8 10 11 11 12 12 12 13 12 12 13 13 14 14 14 14 15 15 15 14 14 13 12 11 11 11 12 13 14 15 16 16 17 16 16 14 12 9 4 2 6 10 12 15 18 24 29 33 35 36 37
11 11 11 12 12 12 11 8 7 6 7 7 8 8 8 8 7 7 7 8 9 10 11 12 12 12 12 12 12 13 13 14 14 14 14 14 14 14 14 13 12 12 11 10 10 11 12 13 14 15 16 17 16 16 14 12 8 3 2 5 7 10 14 18 23 28 32 34 35
12 12 12 12 13 13 12 9 7 7 7 7 8 8 8 8 8 8 8 7 8 9 11 11 12 12 12 12 12 12 13 13 13 13 13 13 13 14 14 13 12 12 11 10 9 9 10 11 12 13 15 16 16 16 16 14 11 7 3 1 3 4 7 13 18 23 27 31 34
13 13 13 13 13 13 12 10 9 7 7 7 8 8 8 8 9 9 9 8 7 8 10 11 12 13 13 12 12 12 12 12 13 12 12 12 12 12 13 13 12 12 11 10 9 9 8 9 10 12 13 14 15 16 16 15 14 11 8 4 1 1 2 6 13 19 24 28 32
14 14 13 13 13 13 13 12 10 9 8 8 9 9 8 8 8 9 9 8 8 8 9 11 12 13 13 13 12 12 12 12 12 12 12 12 11 11 12 12 12 11 11 10 9 8 8 8 9 10 11 12 13 14 15 16 16 14 12 9 6 3 2 1 5 12 19 23 28
15 14 13 13 13 14 14 13 12 11 10 10 10 10 9 9 8 8 9 9 8 8 9 10 12 13 14 14 13 12 12 12 12 12 12 11 11 11 11 11 12 11 11 10 9 8 8 8 8 9 10 11 11 13 14 15 15 16 15 13 11 8 5 3 1 5 11 16 22
15 14 14 13 13 14 14 15 14 14 12 11 10 10 9 9 9 9 10 9 9 9 9 10 11 13 14 14 14 13 12 11 11 11 11 11 10 10 10 10 11 11 11 10 9 9 8 7 7 7 8 10 11 11 12 13 14 15 16 16 14 11 8 6 3 1 4 9 14
16 15 14 14 14 14 14 15 16 16 15 13 11 9 8 9 9 10 10 9 9 9 8 9 10 13 14 15 14 13 12 11 11 10 10 10 10 10 10 10 10 11 11 10 9 9 8 7 7 6 6 8 9 10 10 10 12 14 16 16 15 14 12 9 6 3 1 3 8
16 15 15 14 14 14 14 15 16 17 16 15 12 9 8 8 9 10 10 10 9 9 8 9 10 12 14 15 15 13 12 10 10 10 9 9 9 9 10 10 10 10 10 10 9 9 8 7 6 5 5 5 7 9 9 9 10 12 14 15 15 15 13 12 10 7 3 1 3
16 15 15 15 14 14 14 15 16 17 17 16 14 11 9 9 9 10 10 10 10 9 9 9 10 11 13 14 14 13 11 9 9 8 8 8 8 8 9 9 9 9 9 9 9 9 8 8 7 5 4 4 5 7 9 9 9 10 12 13 14 15 15 14 12 10 7 3 1
15 15 15 15 15 15 15 16 17 18 18 17 15 13 11 10 10 10 10 10 10 10 9 9 10 11 12 12 13 13 11 9 8 8 7 7 7 7 7 8 8 8 8 8 8 9 9 9 8 7 5 4 4 6 8 9 9 9 10 11 12 13 15 15 14 12 9 6 3
15 15 15 15 15 15 16 16 17 18 18 18 17 15 12 11 10 11 11 11 10 10 9 9 9 10 11 12 13 13 11 9 8 7 7 6 6 6 6 6 7 8 8 8 8 8 9 9 9 8 7 6 6 6 7 8 9 10 10 10 11 12 13 14 13 12 10 8 7
15 15 16 16 16 16 17 17 17 18 18 19 18 16 14 12 11 11 11 11 11 10 10 9 9 10 10 12 13 13 12 10 8 8 7 6 6 5 5 4 5 6 7 7 7 8 8 8 9 9 8 8 8 7 7 7 9 10 10 10 11 11 11 12 12 12 11 11 9
14 15 16 16 17 17 18 18 18 18 18 19 18 17 16 14 13 12 12 12 11 11 10 10 10 10 10 11 13 13 12 10 8 8 7 7 6 5 4 3 4 5 6 6 7 7 8 8 8 8 8 9 9 8 8 8 8 10 11 11 11 10 10 10 10 11 11 12 11
14 15 16 17 18 18 19 19 19 18 18 18 18 17 17 16 14 13 13 13 12 12 11 11 11 11 11 11 12 13 12 10 8 7 7 7 6 6 4 3 2 3 4 5 6 6 7 7 8 7 7 8 8 9 8 8 8 9 10 11 11 11 10 9 9 10 10 11 12
13 14 16 17 18 19 20 20 20 19 19 18 18 18 17 17 16 15 14 14 13 13 13 12 12 12 12 12 12 12 12 10 8 7 7 7 7 6 5 3 2 2 3 4 5 6 6 7 8 8 7 7 7 8 8 8 8 9 9 10 11 11 10 9 8 8 9 10 12
12 14 15 17 18 19 20 20 20 20 19 19 18 18 17 17 17 16 16 15 15 15 14 13 13 12 12 11 12 12 12 10 9 7 7 7 6 5 4 3 3 3 2 2 3 4 5 6 7 8 7 7 6 6 7 8 8 9 9 9 10 11 10 9 8 8 8 9 10
11 12 14 16 17 18 19 20 21 21 20 20 19 18 18 18 17 17 17 17 16 16 16 15 14 13 12 12 12 12 12 10 9 7 7 7 6 5 4 4 5 5 3 1 2 3 4 5 6 7 8 8 7 6 6 7 8 9 9 10 11 11 12 11 10 9 8 8 8
10 11 13 14 16 17 18 19 20 20 20 20 20 19 19 18 18 18 18 18 17 17 17 16 16 15 14 13 12 12 11 10 8 7 7 7 7 6 5 5 5 5 4 1 1 2 3 3 4 6 7 8 8 7 6 7 7 8 9 10 11 12 12 12 12 10 9 8 8
11 11 11 12 14 15 17 18 19 20 20 20 20 20 20 19 19 18 18 18 18 18 18 18 17 16 15 14 13 12 10 9 8 7 7 7 7 6 5 5 5 5 4 2 1 1 2 2 3 5 6 7 8 7 7 7 7 7 8 9 10 11 11 12 12 12 11 10 9
12 12 12 12 13 14 15 17 18 19 19 20 20 20 20 19 19 19 18 18 18 18 19 19 19 18 17 15 13 12 10 9 9 8 7 7 8 7 5 4 5 5 5 4 3 2 1 0 2 3 5 6 7 7 7 7 7 7 8 8 9 9 9 10 11 12 12 11 10
13 13 13 12 13 13 15 16 17 18 19 19 19 19 19 19 19 19 18 18 19 19 19 19 19 19 18 16 14 13 11 10 10 9 7 7 8 7 6 5 5 5 5 5 5 4 3 2 1 2 3 4 5 5 6 6 7 7 7 8 8 8 7 8 8 10 11 12 12
14 14 14 14 14 14 14 15 17 18 19 19 19 19 18 18 18 18 19 19 19 19 19 19 19 19 19 17 16 14 13 12 11 9 8 8 8 8 7 6 5 5 5 5 6 5 3 2 1 1 2 3 3 4 4 5 6 7 7 7 7 7 7 6 6 7 8 10 11
14 15 15 15 15 15 15 15 16 17 18 18 18 18 18 18 18 18 19 19 19 20 20 20 19 19 19 18 17 15 14 14 12 11 9 8 8 8 8 7 6 5 5 5 5 4 2 2 2 1 0 1 2 2 3 4 5 6 6 7 7 7 6 5 5 6 6 8 9
14 15 15 16 16 16 16 16 17 17 17 18 18 18 18 17 17 18 18 19 19 20 20 20 20 20 20 19 18 17 16 15 14 13 11 10 9 9 9 8 7 6 5 5 5 5 3 3 2 3 2 2 0 1 2 3 4 4 5 5 6 6 6 6 5 6 6 6 7
15 15 16 16 16 17 18 17 17 17 18 18 18 18 18 17 17 17 18 19 19 19 20 20 20 20 20 20 20 19 19 17 16 14 13 11 11 11 10 9 7 7 6 5 5 5 5 4 3 3 3 3 2 1 1 2 2 3 3 4 4 5 5 6 6 6 6 5 5
16 16 16 16 17 18 18 18 18 18 18 18 18 18 18 18 17 17 18 18 18 19 20 21 21 21 21 21 22 21 20 19 17 16 14 13 12 12 11 10 8 7 7 6 6 6 5 5 5 4 3 3 2 2 1 1 1 1 2 2 3 4 5 5 6 6 5 5 5
17 16 16 16 17 17 18 18 19 19 19 18 18 19 19 19 18 18 18 18 18 19 20 21 21 21 22 22 23 22 21 20 18 17 16 15 14 13 12 11 9 8 7 7 6 6 6 6 5 5 5 5 4 3 2 2 2 1 0 1 2 3 4 5 5 5 6 6 5
17 17 17 17 17 18 18 19 19 19 19 18 19 19 19 19 19 19 19 19 19 19 20 20 20 21 22 23 23 23 22 21 20 18 17 16 15 14 13 12 10 9 8 8 8 7 7 7 6 6 6 6 6 5 3 3 3 3 2 0 1 2 3 4 4 5 5 5 5
17 17 17 18 18 19 19 19 19 19 19 19 19 19 20 20 20 20 20 19 19 19 19 19 20 21 22 23 23 23 23 22 21 20 19 18 17 15 14 12 11 10 9 9 8 8 8 8 7 7 7 6 7 6 5 3 3 3 3 2 1 1 2 3 3 4 4 5 5
17 17 18 18 19 19 19 19 19 19 19 20 20 20 20 21 21 20 20 19 19 18 18 19 20 21 22 23 23 24 23 23 22 21 20 19 17 16 14 13 12 10 10 9 9 9 9 9 8 8 8 8 8 7 6 4 3 3 4 4 2 1 1 2 2 3 4 4 5
17 17 18 18 19 20 20 19 19 20 20 21 21 21 21 21 21 20 20 20 19 19 19 20 21 22 23 23 24 24 24 23 23 22 20 19 18 16 15 14 13 11 10 10 10 10 10 10 9 9 9 9 9 8 7 5 3 3 3 4 4 3 2 1 1 2 3 4 4
17 17 17 18 19 20 20 20 20 20 21 22 23 23 22 22 22 21 21 20 19 19 19 20 21 22 22 23 24 24 24 24 23 22 21 20 18 17 16 15 14 12 11 11 11 11 11 11 10 9 9 10 10 9 8 6 5 3 3 4 4 4 4 3 2 1 2 3 4
17 17 17 18 19 20 20 20 20 21 22 23 24 24 23 23 22 22 21 20 19 19 19 20 20 21 22 23 23 24 24 24 23 23 21 20 19 18 18 16 15 13 12 11 11 11 11 11 11 10 10 11 11 10 9 7 6 4 3 3 4 4 4 3 2 2 2 2 4
17 16 17 18 19 20 20 21 21 22 23 24 25 25 25 24 23 22 21 20 19 19 19 19 20 20 21 22 23 24 24 24 24 23 22 21 20 20 19 17 15 14 12 12 12 12 12 12 11 11 11 11 11 11 10 8 7 6 4 3 4 4 4 4 3 2 2 2 3
18 16 16 17 18 20 20 21 21 22 23 25 25 25 25 24 23 22 21 20 19 19 19 20 20 20 21 22 23 24 25 25 24 24 23 22 22 21 20 18 16 14 13 13 13 12 12 12 12 12 12 12 12 12 11 9 8 7 6 4 4 4 4 4 3 3 3 3 4
19 17 17 17 18 19 20 21 22 23 24 25 25 25 25 24 23 22 21 20 20 20 20 20 20 21 22 22 23 24 24 24 24 24 23 23 22 22 20 19 17 15 14 13 13 13 13 13 13 13 13 14 14 12 11 10 9 8 7 6 5 5 5 5 4 4 4 4 4
19 18 18 18 18 19 20 21 22 24 25 25 25 25 24 24 23 23 22 21 21 20 21 21 21 21 21 21 21 22 23 24 24 24 24 24 23 22 21 20 18 16 14 14 14 14 14 14 13 13 14 16 15 14 12 11 11 9 8 7 6 6 6 5 5 5 5 5 5
19 19 19 18 19 19 20 21 23 24 25 25 25 25 25 24 23 23 22 22 21 21 21 21 21 21 21 20 20 21 22 24 24 24 25 24 24 23 22 20 19 17 15 15 15 15 15 14 14 14 14 16 16 15 14 13 12 11 10 9 8 7 7 6 6 5 5 5 5
18 18 19 19 19 20 20 22 23 24 24 25 25 25 24 23 23 22 22 22 22 21 21 21 21 20 20 20 20 21 22 23 24 24 25 24 24 24 23 22 20 18 16 15 15 15 16 16 15 14 15 16 16 16 15 15 14 13 12 10 9 8 8 7 6 6 6 6 6
Wind_Direction
283 278 277 283 289 288 279 272 281 294 304 312 315 315 316 323 329 333 335 337 341 345 349 353 357 360 3 7 12 16 20 21 23 23 25 27 30 31 30 28 26 27 31 37 43 45 46 46 47 48 48 46 44 41 37 26 277 227 213 204 200 201 202 202 199 195 192 189 187
283 278 275 278 285 288 283 272 272 282 293 302 307 308 306 305 310 315 321 327 332 337 342 345 349 351 353 358 4 9 13 16 18 20 21 23 26 28 30 29 27 25 26 30 35 39 41 41 42 44 46 46 44 42 39 37 25 257 227 214 202 195 195 199 200 198 194 191 188
284 279 274 273 277 283 286 281 273 274 283 293 299 303 303 299 295 293 299 310 322 330 335 338 341 343 345 348 354 -0 5 10 13 15 17 18 21 24 26 27 27 25 24 24 27 32 35 36 37 39 42 43 43 41 40 37 35 21 252 231 213 194 186 188 195 197 196 193 190
283 279 275 272 272 278 284 288 282 277 278 284 290 295 298 299 296 291 290 297 315 326 331 332 334 336 338 340 344 350 356 2 7 11 13 15 16 19 22 24 25 25 24 22 22 24 27 30 32 34 37 40 41 41 41 39 39 40 39 271 236 210 187 180 184 190 194 195 193
283 281 278 276 273 274 279 283 281 277 275 274 277 281 286 291 296 296 296 299 313 323 327 328 329 329 330 332 335 340 348 355 1 7 10 12 13 15 17 19 21 23 22 20 19 18 21 25 29 31 34 37 39 41 42 43 44 45 48 50 11 273 223 183 178 181 187 192 193
282 282 280 278 274 271 272 274 275 272 269 267 267 270 276 281 288 295 299 303 309 316 321 322 323 323 322 323 326 332 340 348 355 1 5 8 9 10 12 14 17 18 19 19 16 14 15 20 26 29 32 34 37 39 41 44 47 48 50 52 50 31 341 273 183 177 180 186 189
278 279 278 276 273 269 266 267 269 270 267 264 262 262 266 273 279 285 291 297 303 310 314 316 317 316 314 315 318 324 333 342 349 354 359 3 5 6 7 9 12 14 17 17 15 13 12 14 21 26 29 31 33 36 39 43 46 49 50 51 50 45 34 17 0 173 173 177 183
273 273 274 274 272 268 264 262 264 267 268 266 264 263 264 269 272 277 283 290 299 305 308 309 310 309 308 308 311 317 325 334 342 348 352 356 0 2 3 5 9 13 15 16 15 14 12 11 15 21 26 29 31 33 36 40 45 49 50 50 49 48 47 44 33 74 158 163 171
268 269 270 271 270 267 263 260 261 264 267 270 270 269 267 267 268 272 277 285 295 300 300 300 304 305 305 306 307 311 317 326 335 342 346 350 354 358 1 3 8 12 15 16 17 17 15 13 14 18 24 29 31 32 33 36 43 48 50 51 50 49 50 49 49 48 89 153 157
267 267 268 269 269 268 265 261 259 260 263 268 270 267 263 262 264 268 272 279 286 289 291 293 298 303 305 307 307 308 311 320 330 337 341 343 347 354 359 3 8 13 17 19 20 22 22 22 23 23 24 27 31 32 32 34 39 46 50 52 51 51 51 50 52 52 54 101 162
269 268 267 268 268 268 265 261 258 258 259 263 266 264 257 253 256 261 265 269 272 277 282 288 295 302 306 308 308 307 308 316 326 334 337 337 340 347 356 2 7 13 19 22 24 26 30 34 35 36 35 29 29 31 33 33 38 45 50 51 52 52 51 50 49 50 53 58 114
270 268 266 266 266 265 263 261 259 257 257 259 262 263 259 252 250 253 258 261 263 267 275 283 292 298 302 305 305 305 307 315 326 333 333 330 331 337 348 357 4 13 21 26 26 28 32 38 41 44 47 46 39 36 35 34 38 44 49 51 51 52 52 51 49 49 52 59 74
270 268 265 263 262 261 261 260 259 258 257 257 259 261 261 257 251 250 253 257 257 260 266 275 283 290 295 298 300 302 307 314 324 330 331 325 322 325 337 352 1 10 19 27 27 27 29 35 39 43 47 52 53 49 42 39 42 47 52 53 54 55 54 53 51 51 54 61 72
268 267 264 262 259 259 258 259 259 260 259 259 259 259 260 259 254 251 251 254 254 254 258 265 272 280 287 291 294 297 302 310 320 328 330 324 315 313 322 343 358 8 17 26 28 26 26 31 35 39 44 50 55 56 53 49 49 52 55 58 59 59 58 57 55 56 58 62 69
265 265 264 262 259 257 257 257 258 260 261 260 260 260 259 258 256 253 251 253 254 252 252 255 261 268 276 284 289 292 297 304 314 325 329 324 311 302 306 324 354 9 16 23 27 27 26 28 32 37 43 49 54 57 59 60 61 60 61 62 65 66 65 63 61 61 62 64 66
263 263 263 261 259 257 256 256 258 259 261 262 262 261 259 258 258 256 254 252 254 255 254 253 254 257 263 271 279 285 291 298 308 320 326 323 309 296 290 302 342 11 18 21 25 28 29 30 31 36 42 50 54 57 60 65 68 69 68 67 68 69 70 69 67 66 67 67 67
262 262 261 261 260 258 257 256 257 258 260 262 263 262 261 261 259 258 256 254 255 257 259 259 259 257 258 262 269 277 284 291 300 312 321 319 307 291 280 287 314 345 2 17 23 27 31 33 34 35 39 47 54 57 59 62 68 72 72 70 67 67 68 69 70 69 70 70 69
261 260 260 260 260 260 259 258 258 258 259 261 262 263 263 262 260 259 258 256 256 257 259 263 266 266 263 263 265 270 276 281 289 302 313 314 304 289 276 279 284 289 309 4 22 27 31 36 35 33 34 40 50 59 61 62 64 68 70 69 66 64 63 65 67 69 70 71 71
264 261 260 260 261 262 262 261 261 260 260 261 261 262 262 261 260 259 258 257 256 256 258 261 265 267 268 267 267 268 269 270 276 289 302 306 300 286 269 262 263 264 270 329 18 23 29 38 38 33 30 33 43 56 67 68 66 66 67 67 67 64 62 62 63 66 70 73 76
271 265 263 263 263 264 265 265 265 264 262 261 261 261 261 261 261 260 258 257 256 257 258 259 261 264 267 270 271 270 266 262 262 274 289 295 293 283 266 254 253 251 250 261 4 9 14 31 39 35 31 31 37 51 66 74 72 69 66 66 66 64 63 62 62 65 69 74 79
281 277 273 270 268 268 269 269 269 267 265 263 262 261 261 261 261 260 260 260 259 257 256 257 259 261 265 270 273 273 269 259 252 259 274 283 284 279 270 259 250 242 233 218 249 325 344 13 30 34 34 33 37 48 60 72 75 72 68 64 64 64 64 63 64 65 68 73 78
291 289 284 280 275 273 272 271 270 269 267 266 265 263 263 262 261 261 261 261 260 257 255 255 257 260 264 269 273 276 271 259 246 246 258 270 274 274 270 263 248 233 221 210 215 226 239 306 25 29 33 37 40 47 57 66 71 72 69 64 62 63 65 66 66 67 69 72 76
297 294 289 284 280 276 273 271 270 269 268 268 266 265 263 262 262 261 261 260 259 257 256 255 256 259 263 268 271 273 271 261 247 239 243 255 263 267 265 259 250 232 216 210 211 212 210 194 141 37 32 36 42 48 55 62 65 65 63 60 59 61 65 67 70 71 72 74 76
299 294 289 285 281 277 274 272 270 269 269 268 268 267 266 264 262 261 259 258 258 257 256 256 256 257 261 265 267 268 267 262 251 240 236 243 252 258 259 256 253 242 229 221 211 204 199 197 184 115 37 32 43 51 56 60 59 55 51 50 50 54 61 69 74 76 77 77 78
299 294 289 285 282 279 276 273 271 270 270 270 270 269 268 266 263 261 259 257 257 257 256 256 255 256 257 260 262 263 262 260 252 243 238 240 245 249 250 251 251 249 243 234 205 185 178 225 232 220 212 17 41 60 66 62 59 52 43 38 40 46 55 68 76 79 81 83 84
299 294 290 287 284 280 277 274 272 272 272 273 271 270 269 267 265 262 260 258 256 256 255 255 254 254 254 255 257 258 258 256 250 243 239 241 243 244 244 244 245 246 246 239 204 179 175 221 242 239 228 223 201 82 79 74 69 57 41 29 32 41 53 65 76 82 85 87 89
298 294 291 289 284 280 277 276 274 274 273 272 271 270 269 268 266 263 261 259 256 255 254 253 252 252 252 252 253 255 256 254 249 243 239 239 243 244 243 239 237 238 240 238 213 189 184 206 223 241 247 236 230 193 101 86 78 58 36 23 29 42 56 66 74 81 86 88 92
298 295 292 288 283 280 278 276 273 271 271 271 271 271 271 269 267 264 261 259 257 255 253 252 251 250 250 249 250 251 252 252 249 243 238 237 241 243 243 239 234 231 232 234 220 201 194 203 213 232 254 263 258 245 215 161 107 45 22 18 33 48 60 69 76 83 88 91 95
299 295 290 285 281 279 278 274 272 270 270 271 271 271 270 268 266 263 261 259 256 253 251 251 249 248 248 247 247 248 249 249 247 243 238 237 239 241 241 238 233 227 225 226 220 207 201 204 201 213 239 261 264 257 242 223 214 226 321 18 47 59 65 71 78 84 90 94 98
298 294 288 283 280 278 276 273 272 272 271 270 269 268 267 265 264 262 260 257 253 252 251 250 249 248 246 246 246 246 246 245 244 241 238 236 237 239 239 237 233 227 223 221 217 212 209 207 196 200 221 249 262 264 254 237 221 214 212 172 68 67 70 75 78 85 91 96 100
296 292 287 283 279 276 275 274 273 271 269 267 265 264 263 263 262 260 259 257 256 254 252 250 248 247 247 247 246 245 244 243 241 239 237 235 235 237 238 238 235 229 225 221 217 214 213 212 202 199 207 226 244 253 254 246 224 208 198 185 125 79 77 79 83 91 96 100 102
294 291 286 282 278 277 275 274 271 269 266 263 261 260 260 261 261 262 261 260 258 255 251 248 246 246 246 246 245 244 243 241 239 236 234 233 233 235 238 239 237 233 228 225 220 217 216 214 208 204 206 214 228 239 246 250 237 209 192 185 177 155 107 91 91 98 104 109 109
293 290 286 282 279 278 276 273 269 266 263 261 259 258 258 260 261 261 261 259 256 252 248 246 244 244 244 245 244 244 242 240 237 234 232 231 231 234 237 239 238 235 232 229 224 220 217 216 212 209 208 212 220 230 240 246 245 222 196 185 183 180 171 141 111 104 110 117 120
294 291 286 283 281 279 276 272 267 263 260 258 257 256 256 256 257 256 256 255 253 251 249 248 246 246 246 246 245 245 243 242 239 235 232 230 230 232 235 237 236 235 234 233 229 223 218 217 214 211 212 216 219 222 226 232 236 235 214 190 185 181 178 170 151 129 123 127 130
298 293 288 285 282 279 276 271 266 261 258 256 255 255 255 254 254 253 253 253 252 251 250 250 249 249 249 249 248 247 245 243 241 237 234 231 230 231 234 235 235 234 235 236 232 225 219 217 215 211 211 216 218 218 217 219 228 236 229 198 185 182 180 172 163 152 143 140 140
303 297 291 286 283 279 275 269 264 259 255 253 253 254 253 253 253 253 253 252 250 248 248 248 247 246 245 246 247 247 245 244 242 239 236 233 232 233 234 234 233 233 234 236 235 228 221 218 216 213 212 216 217 215 213 212 217 227 229 210 190 186 186 179 175 171 167 160 155
308 302 295 288 284 279 274 268 262 256 253 252 252 253 253 253 253 252 251 249 246 244 244 244 243 242 242 242 244 245 246 245 243 241 239 236 235 234 234 234 233 232 232 235 234 229 222 218 216 214 213 216 218 215 210 208 212 218 223 217 204 197 195 193 193 191 186 178 169
311 306 299 291 284 279 273 266 260 255 252 252 253 253 253 253 252 251 249 245 242 241 241 241 240 240 242 244 244 246 247 246 245 243 241 239 237 236 236 235 233 231 230 232 233 229 223 218 216 215 215 219 220 216 210 208 211 214 216 214 209 205 204 203 204 202 198 190 180
311 307 301 293 285 278 272 265 259 255 254 253 253 253 253 251 251 250 248 245 243 241 241 240 240 241 243 244 244 245 246 247 246 245 243 242 240 239 238 237 235 232 229 230 232 229 224 219 216 214 217 222 223 221 216 212 212 213 214 212 208 206 208 209 210 209 206 199 190
308 306 301 295 287 279 271 264 260 258 256 254 253 252 251 250 250 249 248 245 243 242 242 242 243 243 243 242 241 242 243 245 246 245 245 244 242 241 240 239 236 233 230 229 230 228 224 219 217 215 217 224 226 225 223 219 216 215 214 214 210 208 208 212 213 214 211 206 200
305 303 300 296 289 280 272 265 262 260 258 255 253 252 252 251 250 249 246 244 242 241 241 242 243 243 241 239 238 239 241 242 244 245 245 244 243 243 242 240 238 235 231 229 228 227 224 220 217 215 218 225 226 227 227 225 221 218 216 215 213 210 210 213 216 217 216 212 207